Location: Bégole
(43.1574°N, 0.3291°E)
Time: 00:46:00
(UTC+00:00)

deb Delta 89 - Pass Details

Date: 25 February 2024
Orbit: 714 x 2021 km, 97.5° (Epoch: 13 April)

Event Time Altitude Azimuth Distance (km) Brightness Sun altitude
Rises 01:26:26 0° 15° (NNE) 5,471 ? -52.5°
Reaches altitude 10° 01:30:04 10° 22° (NNE) 4,483 ? -52.1°
Enters shadow 01:39:18 41° 74° (ENE) 2,605 ? -51.2°
